Location: Dresden
(51.0500°N, 13.7500°E)
Time: 17:11:22
(UTC+00:00)

ISS - Pass Details

Date: 26 March 2019
Orbit: 408 x 410 km, 51.6° (Epoch: 20 April)

Event Time Altitude Azimuth Distance (km) Brightness Sun altitude
Rises 19:59:58 0° 270° (W) 2,338 0.9 -23.0°
Reaches altitude 10° 20:02:03 10° 271° (W) 1,476 -0.3 -23.3°
Enters shadow 20:04:12 37° 278° (W) 652 -2.4 -23.6°
